Location: Chuathbaluk
(61.5726°N, 159.2454°W)
Time: 14:08:05
(UTC+00:00)

Altair - Pass Details

Date: 30 November 2020
Orbit: 1501 x 1682 km, 47.2° (Epoch: 17 January)

Event Time Altitude Azimuth Distance (km) Brightness Sun altitude
Rises 06:04:12 0° 193° (SSW) 4,710 10.1 -30.6°
Reaches altitude 10° 06:08:42 10° 175° (S) 3,700 9.3 -31.2°
Enters shadow 06:09:05 11° 173° (S) 3,632 9.3 -31.2°
